This is the latest recevied weather packets stored in our database for station/object N4AR. If no packets are shown the sender has not sent any weather packets the latest 10 day(s).
| Time | Temp. | Humidity | Pressure | Rain* | Wind** | Luminosity | Snow |
|---|---|---|---|---|---|---|---|
| 1777987905 | 21.67° C | 53% | 1016.4 hPa | 0 mm | - | 360 W/m² | - |
| 1777987601 | 21.11° C | 53% | 1016.5 hPa | 0 mm | - | 416 W/m² | - |
| 1777987299 | 21.11° C | 53% | 1016.7 hPa | 0 mm | - | 398 W/m² | - |
| 1777986995 | 20.56° C | 53% | 1016.7 hPa | 0 mm | - | 379 W/m² | - |
| 1777986693 | 20.56° C | 55% | 1016.4 hPa | 0 mm | - | 360 W/m² | - |
| 1777986391 | 20.56° C | 55% | 1016.6 hPa | 0 mm | - | 341 W/m² | - |
| 1777986089 | 20° C | 56% | 1016.5 hPa | 0 mm | - | 89 W/m² | - |
| 1777985785 | 20° C | 56% | 1016.7 hPa | 0 mm | - | 81 W/m² | - |
| 1777985482 | 19.44° C | 58% | 1016.6 hPa | 0 mm | - | 285 W/m² | - |
| 1777985179 | 19.44° C | 58% | 1016.6 hPa | 0 mm | - | 268 W/m² | - |
| 1777984875 | 19.44° C | 58% | 1016.4 hPa | 0 mm | - | 253 W/m² | - |
| 1777984571 | 18.89° C | 60% | 1016.2 hPa | 0 mm | - | 234 W/m² | - |
| 1777984268 | 18.33° C | 61% | 1016.7 hPa | 0 mm | - | 218 W/m² | - |
| 1777983965 | 17.78° C | 63% | 1016.4 hPa | 0 mm | - | 203 W/m² | - |
| 1777983662 | 17.78° C | 64% | 1016.4 hPa | 0 mm | - | 73 W/m² | - |
| 1777983358 | 17.22° C | 65% | 1016.2 hPa | 0 mm | - | 77 W/m² | - |
| 1777983055 | 17.22° C | 66% | 1016.3 hPa | 0 mm | - | 42 W/m² | - |
| 1777982752 | 16.67° C | 66% | 1016.4 hPa | 0 mm | - | 73 W/m² | - |
| 1777982448 | 16.67° C | 66% | 1016.2 hPa | 0 mm | - | 39 W/m² | - |
| 1777982142 | 16.11° C | 67% | 1016.4 hPa | 0 mm | - | 36 W/m² | - |
| 1777981840 | 16.11° C | 68% | 1016.3 hPa | 0 mm | - | 35 W/m² | - |
| 1777981537 | 16.11° C | 69% | 1016.3 hPa | 0 mm | - | 34 W/m² | - |
| 1777981233 | 15.56° C | 69% | 1016.2 hPa | 0 mm | - | 33 W/m² | - |
| 1777980930 | 15.56° C | 69% | 1016 hPa | 0 mm | - | 32 W/m² | - |
| 1777980626 | 15.56° C | 69% | 1016 hPa | 0 mm | - | 30 W/m² | - |
* Rain latest hour (hover to see other rain measurements)
** Current wind speed in m/s (hover to see current wind gust speed)